[[{"header":{"parameterUnit":"m.s-1","parameterCategory":1,"la1":30.2991,"la2":30.254,"lo1":-89.0895,"lo2":-89.0444,"dy":0.0017,"dx":0.0017,"nx":28,"ny":28,"refTime":"2025-08-29T09:00:00:Z","depth":0,"parameterNumber":2,"parameterNumberName":"U-component_of_WINDS"},"data":[0,0,0,0,0,0,0,0,0,0,0,0,0,0,0,0,0,0,0,0,0,0,0,0,0,0,0,0,0,0,0,0,0,0,0,0,0,0,0,0,0,0,0,0,0,0,0,0,0,0,0,0,0,0,0,0,0,0,-3.8968,-3.8968,0,-3.8927,-3.8927,-3.8927,-3.8822,-3.882,-3.8817,-3.8815,-3.8774,-3.8775,-3.8776,0,0,0,0,0,0,0,0,0,0,0,0,0,-3.8954,-3.8954,-3.8968,-3.8968,-3.8967,-3.8928,-3.8927,-3.8926,-3.8822,-3.8819,-3.8817,-3.8814,-3.8774,-3.8775,-3.8776,0,0,0,0,0,0,0,0,0,0,0,0,0,-3.8941,-3.8955,-3.8968,-3.891,-3.8905,-3.8928,-3.8927,-3.8926,-3.8823,-3.8819,-3.8816,-3.8813,-3.8774,-3.8775,-3.8777,-3.8853,0,0,-3.8781,-3.8782,0,0,0,0,0,0,0,0,-3.8942,-3.8942,-3.8919,-3.8914,-3.8908,-3.8876,-3.8907,-3.8902,-3.8824,-3.8854,-3.8815,-3.8811,-3.8811,-3.8809,-3.8809,-3.8851,-3.8849,-3.8781,-3.8782,-3.8783,-3.8783,0,0,0,0,0,0,0,-3.8943,-3.8943,-3.8952,-3.8919,-3.8912,-3.8886,-3.888,-3.8905,-3.8852,-3.8851,-3.8843,-3.884,-3.8807,-3.8808,-3.8807,-3.8849,-3.8781,-3.8783,-3.8784,-3.8784,-3.8947,-3.8951,0,0,0,0,0,0,-3.8952,-3.8944,-3.8953,-3.8951,-3.8917,-3.8889,-3.8883,-3.889,-3.8851,-3.8842,-3.8843,-3.8835,-3.8807,-3.8806,-3.8806,-3.889,-3.8783,-3.8784,-3.8785,-3.8944,-3.8948,-3.8952,0,0,0,0,0,0,-3.8952,-3.8954,-3.8955,-3.8945,-3.8944,-3.8893,-3.8901,-3.8891,-3.8891,-3.8845,-3.8835,-3.8853,-3.8804,-3.8803,-3.8841,-3.8887,-3.8785,-3.8786,-3.894,-3.8945,-3.895,-3.9061,0,0,0,0,0,0,-3.8953,-3.8955,-3.8984,-3.8947,-3.8944,-3.8992,-3.8904,-3.8892,-3.8894,-3.8884,-3.8852,-3.8844,-3.8802,-3.8839,-3.8843,-3.8887,-3.8787,-3.8935,-3.8942,-3.8948,-3.9053,-3.9069,-3.9083,0,0,0,0,0,-3.8952,-3.9018,-3.8986,-3.8988,-3.898,-3.8995,-3.8993,-3.8943,-3.8898,-3.8926,-3.8896,-3.8845,-3.8882,-3.8844,-3.8847,-3.8893,-3.8932,-3.894,-3.8948,-3.9046,-3.9066,-3.9083,0,0,0,0,0,0,-3.9062,-3.9012,-3.8976,-3.9031,-3.9018,-3.8977,-3.9011,-3.8967,-3.8966,-3.8957,-3.8895,-3.8888,-3.8934,-3.8917,-3.8876,-3.8962,-3.8898,-3.8907,-3.8972,-3.8991,-3.9005,-3.9008,-3.8789,0,0,0,0,0,-3.9093,-3.911,-3.9064,-3.9118,-3.9112,-3.9063,-3.9068,-3.903,-3.9014,-3.9008,-3.8981,-3.8967,-3.8975,-3.8982,-3.8987,-3.905,-3.904,-3.9082,-3.9097,-3.911,-3.9118,-3.9147,-3.9164,-3.8977,-3.8977,-3.8977,0,0,-3.9157,-3.9131,-3.9145,-3.9139,-3.9124,-3.9142,-3.9059,-3.9083,-3.9095,-3.9012,-3.9045,-3.9025,-3.9005,-3.9055,-3.9075,-3.9042,-3.9167,-3.912,-3.913,-3.9131,-3.9157,-3.9175,-3.919,-3.8982,-3.8982,-3.8981,0,0,-3.9281,-3.9264,-3.9305,-3.9291,-3.9269,-3.9236,-3.9246,-3.9211,-3.9194,-3.9226,-3.9163,-3.9177,-3.9193,-3.918,-3.9176,-3.9293,-3.9245,-3.9297,-3.9376,-3.9405,-3.9419,-3.9432,-3.9472,-3.9487,-3.9305,-3.9305,-3.9305,0,-3.9363,-3.9387,-3.9332,-3.9358,-3.9356,-3.9281,-3.9321,-3.931,-3.9292,-3.9292,-3.9255,-3.9271,-3.9253,-3.9297,-3.9325,-3.9325,-3.9333,-3.93,-3.9422,-3.9434,-3.9445,-3.9482,-3.9497,-3.9312,-3.9311,-3.931,-3.931,0,-3.9488,-3.9505,-3.9541,-3.9523,-3.9525,-3.9559,-3.9507,-3.9516,-3.9478,-3.9448,-3.948,-3.9455,-3.9452,-3.946,-3.9424,-3.9499,-3.9479,-3.9433,-3.9367,-3.947,-3.9503,-3.9517,-3.9321,-3.9318,-3.9316,-3.9315,0,0,-3.9682,-3.9631,-3.9645,-3.9634,-3.9604,-3.9616,-3.9645,-3.9641,-3.9649,-3.9638,-3.966,-3.9674,-3.963,-3.9625,-3.9587,-3.9612,-3.9703,-3.9562,-3.9561,-3.9588,-3.9782,-3.9815,-3.9833,-3.9671,-3.9674,-3.9676,-3.9783,0,-3.9797,-3.9843,-3.9793,-3.9849,-3.9864,-3.9791,-3.9816,-3.9799,-3.9771,-3.9779,-3.9748,-3.9758,-3.9701,-3.9697,-3.9719,-3.9688,-3.9741,-3.9679,-3.969,-3.9691,-3.9696,-3.9851,-3.9887,-3.9989,-3.9796,-3.9798,-3.9799,0,-3.9939,-3.9933,-3.999,-3.9953,-3.9957,-3.998,-3.9971,-3.998,-3.9959,-3.9936,-3.993,-3.9883,-3.9907,-3.9843,-3.9875,-3.9834,-3.9835,-3.982,-3.9823,-3.9821,-3.9751,-3.9852,-4.0021,-4.0036,-3.982,-3.9818,-3.9817,0,-4.0072,-4.0078,-4.0112,-4.0106,-4.0064,-4.0082,-4.0065,-4.004,-4.0041,-4.0033,-4.0032,-4.0028,-4.0026,-4.0023,-3.9975,-3.9934,-4.0012,-3.9945,-3.9993,-3.9994,-4.0012,-4.0012,-4.0183,-4.0016,-4.0015,-4.0015,-4.0015,0,-4.0206,-4.0243,-4.0171,-4.0193,-4.0231,-4.0173,-4.0213,-4.0189,-4.0167,-4.0181,-4.0119,-4.0134,-4.007,-4.0077,-4.004,-4.0071,-4.0071,-4.0052,-4.0042,-4.0057,-4.0059,-4.0056,-4.0047,-4.0019,-4.0018,-4.0018,-4.0017,0,-4.0361,-4.0315,-4.0347,-4.0303,-4.0293,-4.0324,-4.0286,-4.0303,-4.0271,-4.0289,-4.029,-4.0239,-4.0244,-4.0196,-4.0193,-4.0168,-4.0215,-4.0193,-4.0222,-4.0215,-4.0265,-4.026,-4.0439,-4.0458,-4.0281,-4.0283,-4.0284,0,-4.0449,-4.0476,-4.0434,-4.0439,-4.0425,-4.0434,-4.0433,-4.0375,-4.0377,-4.0353,-4.0373,-4.0373,-4.037,-4.0381,-4.0344,-4.034,-4.0316,-4.0379,-4.0315,-4.0329,-4.0315,-4.0313,-4.0315,-4.0392,-4.0394,-4.0396,-4.0398,0,-4.0609,-4.0584,-4.0585,-4.0578,-4.0578,-4.057,-4.0557,-4.0564,-4.0502,-4.0506,-4.051,-4.0508,-4.0503,-4.0503,-4.0492,-4.0474,-4.0425,-4.0418,-4.0428,-4.0444,-4.0459,-4.0449,-4.0257,-4.0414,-4.0412,-4.0411,-4.041,-4.041,-4.0732,-4.0751,-4.0724,-4.0727,-4.0711,-4.07,-4.0713,-4.0681,-4.0683,-4.0674,-4.064,-4.065,-4.0625,-4.0604,-4.059,-4.0596,-4.0566,-4.0582,-4.0585,-4.059,-4.0598,-4.0459,-4.0594,-4.0594,-4.0593,-4.0593,-4.0592,0,-4.0887,-4.0865,-4.0868,-4.0852,-4.0853,-4.0806,-4.0789,-4.0793,-4.0802,-4.0783,-4.0781,-4.0784,-4.0783,-4.0745,-4.0739,-4.0751,-4.0728,-4.0751,-4.0749,-4.0745,-4.0627,-4.0617,-4.0769,-4.0769,-4.0769,-4.0769,-4.0769,-4.0769,-4.0968,-4.0997,-4.0969,-4.0988,-4.0966,-4.0974,-4.0968,-4.0957,-4.0941,-4.0948,-4.0946,-4.092,-4.0893,-4.0884,-4.088,-4.0869,-4.0869,-4.0899,-4.088,-4.0771,-4.0754,-4.0737,-4.0728,-4.09,-4.09,-4.0997,-4.0998,-4.0999]},{"header":{"parameterUnit":"m.s-1","parameterCategory":1,"la1":30.2991,"la2":30.254,"lo1":-89.0895,"lo2":-89.0444,"dy":0.0017,"dx":0.0017,"nx":28,"ny":28,"refTime":"2025-08-29T09:00:00:Z","depth":0,"parameterNumber":3,"parameterNumberName":"V-component_of_WINDS"},"data":[0,0,0,0,0,0,0,0,0,0,0,0,0,0,0,0,0,0,0,0,0,0,0,0,0,0,0,0,0,0,0,0,0,0,0,0,0,0,0,0,0,0,0,0,0,0,0,0,0,0,0,0,0,0,0,0,0,0,2.7665,2.7662,0,2.7401,2.7398,2.7395,2.7256,2.7256,2.7255,2.7255,2.6972,2.6965,2.6957,0,0,0,0,0,0,0,0,0,0,0,0,0,2.8037,2.8031,2.7665,2.7662,2.7658,2.7401,2.7397,2.7394,2.7256,2.7256,2.7255,2.7255,2.6974,2.6966,2.6957,0,0,0,0,0,0,0,0,0,0,0,0,0,2.7834,2.8029,2.7665,2.7559,2.7547,2.7402,2.7397,2.7393,2.7256,2.7256,2.7255,2.7255,2.6977,2.6966,2.6955,2.6892,0,0,2.6922,2.6917,0,0,0,0,0,0,0,0,2.7846,2.7821,2.7578,2.7566,2.7552,2.7361,2.7424,2.7225,2.7256,2.7366,2.7255,2.7255,2.7101,2.7079,2.703,2.6879,2.6867,2.6921,2.6914,2.6909,2.6906,0,0,0,0,0,0,0,2.786,2.7831,2.756,2.7574,2.7559,2.752,2.7491,2.7386,2.7237,2.7356,2.7346,2.7317,2.7093,2.7041,2.7022,2.6863,2.6921,2.6911,2.6904,2.69,2.6644,2.6644,0,0,0,0,0,0,2.7893,2.7844,2.7568,2.7552,2.7702,2.7514,2.7481,2.7422,2.7238,2.721,2.7318,2.7312,2.706,2.7035,2.7012,2.6924,2.6909,2.6899,2.6892,2.6645,2.6644,2.6644,0,0,0,0,0,0,2.7902,2.787,2.7579,2.7695,2.7655,2.7508,2.7443,2.7417,2.7365,2.7209,2.7181,2.7292,2.7059,2.7027,2.6924,2.6913,2.6894,2.6884,2.6645,2.6645,2.6644,2.6751,0,0,0,0,0,0,2.7913,2.7874,2.7851,2.7696,2.765,2.7499,2.7442,2.7412,2.7348,2.7337,2.7178,2.7151,2.7056,2.6941,2.6913,2.6897,2.6875,2.6645,2.6645,2.6644,2.6747,2.6754,2.676,0,0,0,0,0,2.7927,2.7889,2.7851,2.7818,2.7619,2.7499,2.7472,2.7368,2.7348,2.7321,2.7221,2.7156,2.6919,2.6932,2.6898,2.6879,2.6645,2.6645,2.6644,2.6744,2.6753,2.676,0,0,0,0,0,0,2.8043,2.7867,2.7822,2.7734,2.7634,2.7476,2.744,2.738,2.7279,2.7273,2.7143,2.7108,2.7016,2.6937,2.6954,2.6808,2.6775,2.6768,2.6863,2.6869,2.6875,2.6895,2.6866,0,0,0,0,0,2.8059,2.7981,2.7829,2.7766,2.7718,2.7589,2.7532,2.7461,2.7349,2.7304,2.7196,2.7087,2.6987,2.6924,2.6824,2.6736,2.6697,2.6706,2.6713,2.6719,2.6713,2.6658,2.666,2.6643,2.6643,2.6643,0,0,2.809,2.7984,2.7942,2.7787,2.77,2.7617,2.7553,2.7468,2.7404,2.7289,2.7186,2.7103,2.6972,2.6876,2.6828,2.6807,2.671,2.6718,2.6724,2.6715,2.6658,2.666,2.6662,2.6643,2.6643,2.6643,0,0,2.8104,2.8018,2.7955,2.787,2.7741,2.7656,2.7641,2.7493,2.7435,2.733,2.7241,2.7162,2.6994,2.6903,2.6836,2.6817,2.6752,2.6788,2.6819,2.6767,2.6769,2.6769,2.676,2.6758,2.6783,2.6783,2.6784,0,2.8157,2.8034,2.7929,2.785,2.7783,2.768,2.7613,2.7535,2.7378,2.7332,2.7313,2.71,2.7004,2.6885,2.6881,2.683,2.6806,2.6804,2.6778,2.6777,2.6776,2.6765,2.6763,2.6789,2.6788,2.6787,2.6787,0,2.8104,2.802,2.7984,2.7841,2.7769,2.7697,2.7577,2.7517,2.7453,2.7368,2.726,2.7143,2.7017,2.6983,2.6917,2.6853,2.6845,2.6804,2.6767,2.6784,2.6772,2.6768,2.6796,2.6794,2.6792,2.6791,0,0,2.8181,2.7983,2.7971,2.7905,2.7755,2.7686,2.7607,2.7488,2.7438,2.7334,2.7262,2.7123,2.7084,2.7007,2.693,2.6886,2.6876,2.6849,2.6844,2.6856,2.6795,2.6826,2.6823,2.6833,2.6832,2.6831,2.6805,0,2.8172,2.8032,2.7936,2.783,2.7749,2.7651,2.7582,2.7481,2.74,2.7316,2.7223,2.7127,2.7084,2.7037,2.6989,2.6888,2.6861,2.6888,2.676,2.6757,2.6795,2.6817,2.6849,2.683,2.68,2.6799,2.6799,0,2.8143,2.8046,2.7935,2.7794,2.7756,2.7697,2.758,2.7502,2.7384,2.7328,2.7244,2.7166,2.7074,2.7049,2.6919,2.694,2.6882,2.6825,2.6821,2.6803,2.6778,2.6797,2.6822,2.6819,2.6791,2.6791,2.6792,0,2.8208,2.8049,2.7962,2.7908,2.7742,2.7702,2.7631,2.7513,2.7448,2.7344,2.7299,2.7185,2.7122,2.7033,2.6925,2.6917,2.6805,2.6771,2.6752,2.6755,2.6731,2.6733,2.6745,2.6698,2.6698,2.6698,2.6698,0,2.8206,2.8141,2.7989,2.7935,2.7858,2.7747,2.7672,2.7591,2.7488,2.7413,2.732,2.7251,2.7114,2.7027,2.6941,2.6845,2.6817,2.6766,2.6744,2.6773,2.678,2.6731,2.6729,2.6697,2.6698,2.6698,2.6698,0,2.8265,2.8161,2.8059,2.7912,2.7874,2.7823,2.7695,2.7636,2.7552,2.7458,2.7429,2.7294,2.7187,2.7071,2.6924,2.6866,2.6774,2.6743,2.6815,2.6802,2.6788,2.6791,2.6767,2.6757,2.6721,2.6722,2.6722,0,2.827,2.8218,2.8067,2.8013,2.7945,2.7858,2.7792,2.768,2.7614,2.7476,2.7433,2.7321,2.7224,2.7057,2.6942,2.6828,2.6793,2.6792,2.6774,2.6806,2.6789,2.6793,2.6786,2.6797,2.6798,2.6799,2.68,0,2.8289,2.824,2.8151,2.8044,2.7969,2.7878,2.7782,2.7742,2.761,2.754,2.7432,2.7358,2.7209,2.7096,2.697,2.689,2.6821,2.6807,2.6796,2.6824,2.6867,2.6841,2.6828,2.6807,2.6806,2.6806,2.6805,2.6805,2.8318,2.8268,2.8154,2.8057,2.7975,2.7888,2.7826,2.7735,2.7645,2.7518,2.7456,2.7348,2.7229,2.7052,2.6975,2.6885,2.6864,2.6849,2.6844,2.6842,2.6849,2.6885,2.6862,2.6861,2.6861,2.686,2.686,0,2.833,2.8253,2.8166,2.8038,2.7961,2.7909,2.7801,2.7738,2.7646,2.7543,2.7452,2.7326,2.7217,2.7095,2.6977,2.6929,2.6894,2.6901,2.6902,2.6884,2.6875,2.6896,2.6931,2.6931,2.6931,2.6931,2.6931,2.6931,2.8328,2.8239,2.8177,2.8045,2.7966,2.7863,2.7806,2.7724,2.7641,2.7507,2.7418,2.7341,2.7229,2.7103,2.6999,2.6965,2.6925,2.6941,2.6898,2.6891,2.6885,2.688,2.6898,2.6934,2.6934,2.6914,2.6914,2.6914]}]]